Temperature
21 20 20 20 20 20 20 20 20 20 20 20 20 20 20 20 20 19 19 19 19 19 18 18 18 18 18 18 18 18 18 18 18 18 18 18 18 18 18 17 17 17 17
21 20 20 20 20 20 20 20 20 20 20 20 20 20 20 20 20 19 19 19 19 19 19 18 18 18 18 18 18 18 18 18 18 18 18 18 18 18 17 17 17 17 17
20 20 20 20 20 20 20 20 20 20 20 20 20 20 20 20 19 19 19 19 19 19 19 19 19 19 19 18 18 18 18 18 18 18 17 17 17 18 17 17 17 18 17
20 20 20 20 20 20 20 20 20 20 20 20 20 20 20 19 19 19 19 19 19 19 19 19 19 19 19 19 18 18 18 18 18 17 17 17 17 17 17 17 17 17 17
20 19 20 20 20 20 20 20 20 20 20 20 20 20 20 19 19 19 19 19 19 19 19 19 19 19 19 19 18 18 18 18 18 17 17 17 17 18 17 17 17 17 17
19 19 20 20 20 20 20 20 20 20 20 20 20 20 19 19 19 19 19 19 19 18 19 19 19 19 19 19 18 18 18 18 17 17 17 17 17 18 17 17 17 17 17
20 19 19 20 20 20 20 20 20 20 20 20 19 19 19 19 19 19 19 18 18 18 18 19 19 19 19 19 19 18 18 18 17 17 17 17 17 18 18 17 17 17 18
20 19 19 20 19 19 19 19 19 19 19 19 19 19 19 19 19 19 19 18 18 18 18 18 19 19 19 19 19 18 18 18 17 17 17 17 17 18 17 17 17 17 17
20 19 18 19 19 19 19 19 19 19 19 19 19 19 19 19 19 18 18 18 18 18 18 18 18 18 18 19 18 18 18 18 17 18 17 17 18 18 17 17 17 17 17
19 19 18 18 18 19 19 19 19 19 19 19 19 19 18 18 18 18 18 18 18 18 18 18 18 18 18 18 18 18 18 18 18 18 18 17 18 18 18 17 17 17 17
19 19 19 19 18 18 18 18 18 19 19 18 18 18 18 18 18 18 18 18 18 18 18 18 18 18 18 18 18 18 18 17 18 18 18 18 18 18 18 17 17 17 17
19 19 19 18 18 18 18 18 18 18 18 18 18 18 18 18 18 17 17 18 18 18 18 18 18 18 18 17 17 18 17 17 18 18 18 18 18 18 18 17 17 17 17
19 19 19 18 18 18 18 18 18 18 18 18 18 18 18 18 18 17 18 18 18 18 18 17 17 17 17 17 17 17 17 17 18 18 18 18 18 18 18 18 17 17 17
19 19 19 19 18 18 18 18 18 18 18 18 18 18 18 18 18 17 17 17 17 17 17 17 17 17 17 17 17 17 17 17 17 17 17 17 18 18 18 18 18 17 17
19 19 19 19 18 18 19 18 18 18 18 18 18 18 18 17 17 17 17 17 17 17 17 17 17 17 17 17 17 16 17 17 17 17 17 17 17 18 18 18 18 18 17
19 19 19 19 19 19 19 18 18 18 18 18 17 17 17 17 17 17 17 17 17 16 16 17 16 16 17 16 16 16 16 16 17 17 17 17 17 17 17 17 18 18 18
19 19 19 19 19 19 18 18 18 17 17 17 17 17 17 17 17 17 16 16 16 16 16 16 16 16 16 16 16 16 16 16 16 16 16 16 16 17 17 17 18 18 18
18 18 18 18 18 18 18 18 17 17 17 16 16 16 16 16 16 16 16 16 16 16 15 15 15 15 16 16 16 16 16 16 16 16 16 16 17 17 17 17 17 18 18
18 18 18 18 18 17 17 17 17 17 17 16 16 16 16 16 16 15 15 15 15 15 15 15 15 15 15 15 15 16 16 16 16 16 16 16 16 16 16 17 17 17 17
18 18 18 18 18 18 17 17 17 17 16 16 16 16 15 15 15 15 15 14 14 14 14 14 14 14 14 14 15 16 15 16 16 16 16 16 16 16 16 16 16 17 17
18 18 18 18 18 17 17 17 16 16 16 15 15 15 15 15 14 14 14 14 14 14 14 14 14 14 14 14 15 15 16 16 16 16 16 16 16 16 16 16 16 16 16
18 18 18 18 17 17 17 17 16 16 15 15 15 15 14 14 14 14 13 13 13 13 13 13 13 14 14 14 14 15 16 17 16 16 16 16 16 16 16 16 16 16 16
18 18 17 17 17 17 17 16 16 15 15 15 14 14 14 13 13 13 13 13 12 13 13 13 13 13 13 14 14 14 15 17 16 16 16 15 15 15 15 15 15 15 16
18 17 17 17 17 17 16 16 15 15 15 15 14 14 13 13 12 12 12 12 12 12 12 12 13 12 12 13 14 13 14 14 14 15 16 16 15 15 15 15 15 15 15
18 18 17 17 17 16 16 15 15 15 14 14 14 13 13 13 12 12 11 11 11 11 11 11 11 11 12 12 13 14 14 13 13 14 15 15 15 15 15 15 15 15 15
18 18 17 17 16 16 16 15 15 14 14 13 13 13 13 13 12 12 11 11 11 11 11 10 11 11 11 11 12 13 13 14 14 14 14 15 15 15 15 15 15 15 15
Wind_Speed
14 18 19 14 13 12 13 14 15 16 16 16 16 15 14 14 13 12 11 9 9 8 8 8 8 9 9 9 10 10 10 10 11 11 12 12 12 13 13 13 13 16 16
17 20 19 15 13 13 13 14 14 15 16 15 15 15 14 13 12 11 10 9 8 7 7 7 8 8 9 9 9 9 9 10 10 10 12 13 12 12 11 8 7 16 15
18 20 20 16 14 13 13 14 14 14 15 15 14 14 13 12 11 10 9 8 7 7 7 7 7 8 8 8 9 9 9 8 9 8 9 11 13 11 10 10 15 16 15
18 19 19 18 15 14 13 14 14 14 14 14 13 13 12 11 10 9 9 8 7 6 6 6 6 7 7 7 8 8 8 7 7 7 7 9 11 12 10 12 14 14 14
17 17 19 18 16 14 14 14 13 13 13 13 12 12 11 10 9 8 7 7 6 6 6 5 5 5 6 6 6 6 6 6 5 7 6 7 10 12 11 12 13 14 14
16 17 19 18 16 14 14 13 13 13 12 12 11 10 9 9 8 7 7 6 5 5 5 5 4 5 5 5 5 5 5 4 8 5 5 5 10 11 11 11 12 13 13
15 15 19 17 16 14 13 13 13 12 12 11 10 10 9 8 7 6 6 5 5 5 5 5 4 4 4 4 4 4 4 4 6 4 4 5 9 12 10 10 11 12 12
14 15 17 16 14 14 13 12 12 11 11 11 10 9 8 7 7 6 6 5 5 5 5 5 5 5 5 5 5 5 5 7 7 4 4 5 11 11 10 10 11 12 12
13 13 14 15 14 13 12 11 11 11 10 10 9 9 8 8 7 7 7 6 6 6 6 6 6 7 7 7 7 6 6 8 10 5 5 5 12 10 10 11 11 12 12
11 11 11 12 12 12 12 11 10 9 8 8 8 8 7 8 9 9 10 9 8 7 7 8 8 8 8 9 9 8 8 9 13 8 6 7 12 11 11 13 13 13 13
10 9 9 10 9 9 9 10 10 9 8 8 8 8 8 8 8 9 9 5 7 7 8 8 9 10 10 12 12 11 10 11 12 9 7 10 12 11 12 13 15 15 15
11 9 7 6 7 6 6 7 6 7 7 6 4 5 6 5 5 6 2 5 7 8 8 9 10 11 13 11 12 13 11 13 12 10 7 12 11 12 13 14 16 17 17
10 9 8 7 6 6 4 4 3 3 3 4 4 4 4 3 4 5 4 5 7 8 8 8 9 9 9 9 8 10 10 11 10 10 8 13 12 13 14 15 17 18 19
9 8 7 7 5 4 3 3 3 3 3 3 3 4 4 3 3 4 4 5 5 6 6 6 5 8 9 10 11 11 11 11 11 11 9 12 13 14 16 16 17 19 20
9 8 6 5 4 4 3 3 2 2 2 2 2 3 4 3 3 4 4 5 6 6 6 6 6 7 7 9 10 11 12 13 13 13 10 11 14 16 17 18 19 19 21
8 7 6 5 4 4 3 3 2 2 1 2 2 3 3 4 4 4 4 4 5 6 6 6 6 6 6 7 9 10 11 13 13 13 14 13 17 19 19 20 20 20 21
7 7 6 5 5 4 3 3 2 1 1 1 2 2 2 3 3 3 3 4 4 5 5 5 6 6 6 7 8 9 10 12 13 13 15 14 15 19 22 22 22 22 22
7 7 6 4 5 4 2 1 1 0 1 1 1 1 2 2 2 3 3 3 3 4 4 4 5 6 6 7 7 7 8 9 12 13 15 15 15 15 19 24 24 23 23
6 6 6 5 5 4 3 2 1 1 1 1 1 1 2 2 3 3 3 3 4 5 5 6 5 6 7 7 8 8 9 9 10 12 13 15 15 16 16 18 24 24 24
6 5 6 6 5 5 4 3 2 1 1 0 1 1 1 1 2 4 4 3 5 6 5 5 6 6 7 7 9 9 9 10 10 10 12 12 13 16 17 17 17 20 26
6 6 5 5 5 4 3 3 2 2 1 1 1 0 1 2 2 4 5 4 5 6 6 7 7 8 8 7 9 10 10 11 10 9 10 10 11 13 14 15 16 16 16
7 6 6 6 5 5 3 2 1 2 2 2 1 0 1 2 4 5 4 6 6 6 7 7 7 8 9 7 8 9 10 9 7 8 7 8 9 8 10 13 14 15 16
7 7 6 5 5 5 4 4 3 3 4 3 3 3 2 4 5 5 6 7 6 8 7 7 8 10 9 9 8 8 8 9 7 6 6 6 6 6 8 8 12 15 16
8 8 7 7 6 6 6 5 5 5 5 4 4 4 4 5 6 6 7 7 7 8 8 9 9 8 9 10 8 8 9 9 8 8 7 7 7 7 7 8 9 11 14
8 8 7 7 7 6 6 5 5 6 5 5 5 5 6 6 6 7 7 7 7 8 8 8 9 10 9 10 10 9 9 9 11 10 10 8 8 7 7 8 8 9 12
8 7 7 7 6 6 6 5 5 6 6 7 7 7 7 7 6 7 7 7 8 9 8 9 9 10 10 10 10 10 10 9 9 9 10 10 9 8 7 7 8 8 9
Wind_Direction
151 143 142 146 144 142 143 146 151 156 156 153 151 149 147 146 144 141 138 133 126 117 106 98 95 96 98 100 101 105 109 112 113 116 117 117 118 120 123 131 140 117 117
145 142 143 146 145 141 138 138 142 149 152 150 148 148 147 147 145 144 141 138 132 122 110 102 98 98 100 103 104 108 114 116 118 121 127 125 121 124 129 133 105 116 124
144 142 148 147 146 141 136 134 134 137 142 145 144 144 146 147 147 147 145 143 139 129 117 109 105 104 105 107 110 113 116 117 121 136 162 139 125 127 127 114 110 124 127
144 146 152 146 147 143 139 136 135 134 136 139 141 142 145 147 148 148 149 148 146 139 129 120 114 112 113 114 117 120 121 121 130 183 169 127 132 128 133 128 128 132 132
144 145 144 149 149 147 144 141 138 137 137 139 142 144 146 149 150 152 153 154 155 150 140 133 127 124 125 126 125 126 125 127 163 222 116 125 124 132 141 140 138 137 138
147 150 145 153 151 151 149 147 144 142 142 144 146 149 152 154 157 161 165 168 166 159 152 148 145 142 142 142 139 136 136 157 218 154 127 139 128 141 149 149 147 144 145
151 149 146 154 153 154 154 152 151 150 151 152 154 156 160 164 169 175 179 186 185 178 171 171 171 166 169 172 168 165 170 219 248 136 148 141 123 143 158 158 157 154 154
151 149 144 153 156 157 158 157 157 158 160 161 164 167 170 175 181 188 193 200 207 205 195 195 194 191 193 197 198 197 206 244 232 186 179 147 128 156 168 169 167 165 164
150 145 151 160 161 163 163 164 165 167 170 172 177 180 185 190 199 208 211 217 226 228 220 217 216 211 209 212 214 217 225 251 265 217 199 172 146 173 183 180 179 177 174
151 153 156 162 164 170 171 170 172 175 179 183 188 193 199 208 212 216 222 216 228 237 240 236 232 228 222 221 222 225 230 241 249 233 212 168 154 186 197 193 188 188 185
157 159 165 163 166 177 178 168 179 183 190 198 200 201 218 229 226 218 230 208 232 241 246 248 246 240 234 225 223 226 230 241 241 244 226 146 165 196 208 205 198 196 194
164 167 165 170 164 180 182 170 194 194 187 212 213 210 226 244 261 264 207 227 245 252 249 245 252 250 243 238 218 215 232 239 254 245 219 151 180 205 215 214 208 204 201
169 174 172 171 173 188 186 192 193 199 186 210 218 229 239 259 263 269 263 236 238 241 247 234 240 251 249 247 248 229 237 250 247 252 229 166 192 214 221 220 216 212 208
175 176 179 171 181 191 200 204 212 217 208 227 221 252 244 242 255 267 277 277 271 265 264 262 250 252 256 250 248 251 246 242 248 248 239 183 201 218 225 224 222 218 214
173 175 171 173 176 184 191 224 225 238 245 256 286 258 258 255 254 251 263 272 275 274 270 267 264 264 263 259 253 249 250 248 247 249 248 210 211 222 229 227 225 222 218
167 163 156 163 168 181 196 208 228 249 289 296 278 271 259 257 263 261 255 261 268 269 276 275 272 270 267 262 258 256 254 254 250 246 248 235 220 221 226 229 228 224 221
154 151 151 162 162 169 197 207 191 204 228 294 305 297 295 282 270 270 264 261 269 273 268 266 270 268 265 263 260 262 259 255 254 249 248 247 238 225 221 224 227 227 225
146 143 148 154 145 153 167 181 178 134 20 330 308 311 344 336 303 284 279 274 282 274 270 269 268 276 275 276 273 269 265 257 254 251 247 243 243 243 226 218 221 225 226
143 143 143 141 143 145 146 153 148 106 21 325 330 4 13 340 322 298 299 309 281 274 272 275 280 282 280 280 277 264 264 261 258 254 251 248 244 242 242 221 216 222 226
138 137 139 142 137 146 154 156 160 168 198 270 0 37 330 306 312 308 286 300 291 281 277 278 283 273 279 279 282 282 272 268 262 257 254 251 246 243 240 237 227 224 223
144 145 151 150 148 166 172 186 192 202 225 233 228 116 288 321 326 305 303 297 283 283 290 288 284 274 270 276 278 276 269 259 258 257 254 257 251 246 246 241 237 235 225
163 165 171 176 176 191 177 204 236 268 257 254 265 195 292 319 313 300 312 293 288 290 275 279 276 284 284 273 276 285 282 271 243 253 254 251 254 252 249 244 238 237 239
180 185 188 187 193 204 201 215 215 228 246 243 257 258 291 303 301 306 296 295 300 287 284 287 282 270 278 279 268 277 284 285 300 269 257 257 260 263 260 255 244 239 235
196 196 200 200 204 206 215 233 248 269 284 293 289 292 293 285 292 292 289 288 289 292 293 279 277 280 272 274 265 255 265 284 284 284 269 258 254 257 263 265 261 249 243
202 203 202 203 208 211 223 230 247 267 282 285 287 283 287 285 279 282 282 286 285 284 291 293 290 277 273 271 276 271 263 260 256 265 278 282 273 265 262 260 259 258 251
205 206 207 205 210 213 221 233 252 274 285 293 290 294 288 287 283 278 280 281 279 284 286 279 278 270 269 275 276 275 270 267 265 268 272 273 278 276 273 271 265 258 252
Height
1532 1533 1534 1538 1541 1543 1546 1548 1550 1552 1554 1555 1556 1557 1558 1559 1560 1561 1562 1562 1563 1564 1564 1565 1565 1565 1565 1565 1566 1566 1566 1566 1566 1566 1566 1567 1567 1568 1569 1569 1571 1571 1571
1532 1533 1535 1539 1542 1545 1547 1549 1551 1553 1555 1556 1558 1559 1560 1561 1562 1562 1563 1564 1564 1565 1565 1566 1566 1566 1566 1567 1567 1567 1567 1567 1568 1568 1568 1569 1569 1570 1571 1572 1573 1573 1573
1532 1534 1537 1540 1543 1546 1548 1551 1553 1554 1556 1557 1559 1560 1561 1562 1563 1563 1564 1565 1565 1566 1566 1567 1567 1567 1567 1568 1568 1568 1569 1569 1569 1570 1571 1572 1572 1572 1573 1574 1574 1575 1575
1534 1536 1539 1541 1544 1547 1550 1552 1554 1555 1557 1558 1560 1561 1562 1563 1564 1564 1565 1566 1566 1567 1567 1568 1568 1568 1569 1569 1569 1570 1570 1571 1571 1572 1574 1575 1574 1574 1574 1575 1576 1577 1578
1536 1539 1540 1543 1546 1548 1551 1553 1555 1557 1558 1559 1561 1562 1563 1564 1564 1565 1566 1567 1567 1568 1568 1569 1569 1570 1570 1570 1571 1571 1572 1572 1573 1574 1576 1576 1576 1575 1576 1577 1578 1579 1580
1538 1541 1542 1544 1547 1550 1552 1554 1556 1558 1559 1560 1561 1562 1563 1564 1565 1566 1567 1567 1568 1569 1569 1569 1570 1570 1571 1571 1572 1572 1573 1573 1574 1578 1577 1578 1577 1576 1577 1578 1579 1580 1581
1541 1543 1543 1546 1549 1551 1553 1555 1557 1559 1560 1561 1562 1563 1564 1565 1566 1567 1567 1568 1569 1569 1570 1570 1570 1571 1572 1572 1573 1573 1574 1575 1577 1579 1578 1579 1578 1577 1578 1579 1580 1581 1583
1543 1545 1545 1547 1550 1552 1554 1556 1558 1559 1561 1562 1563 1564 1565 1565 1566 1567 1568 1568 1569 1570 1570 1571 1571 1571 1572 1572 1573 1574 1574 1575 1578 1579 1579 1579 1578 1578 1579 1580 1581 1582 1583
1545 1547 1547 1549 1551 1553 1555 1557 1558 1560 1561 1562 1563 1564 1565 1565 1566 1567 1568 1568 1569 1569 1570 1570 1571 1571 1572 1572 1573 1573 1574 1575 1577 1579 1579 1579 1578 1578 1579 1580 1581 1582 1584
1545 1548 1549 1551 1553 1554 1556 1557 1559 1560 1561 1562 1563 1564 1564 1565 1566 1566 1567 1567 1568 1568 1569 1569 1570 1570 1571 1571 1572 1573 1573 1574 1576 1579 1579 1578 1577 1578 1579 1580 1581 1582 1583
1545 1548 1550 1552 1553 1555 1557 1558 1559 1560 1561 1561 1562 1563 1564 1565 1566 1566 1567 1567 1567 1567 1568 1568 1569 1569 1569 1570 1570 1571 1572 1574 1576 1577 1577 1577 1576 1577 1578 1579 1580 1581 1583
1545 1548 1550 1552 1553 1555 1557 1558 1559 1560 1561 1561 1562 1562 1563 1564 1565 1566 1565 1565 1565 1565 1566 1566 1567 1567 1568 1569 1569 1569 1570 1572 1574 1574 1575 1573 1574 1576 1577 1578 1579 1580 1582
1545 1548 1550 1551 1552 1554 1556 1557 1559 1559 1560 1560 1561 1561 1561 1562 1562 1563 1563 1564 1563 1563 1564 1564 1564 1565 1566 1566 1567 1567 1567 1569 1570 1571 1571 1570 1571 1573 1574 1575 1577 1578 1580
1546 1548 1550 1551 1552 1553 1554 1556 1556 1558 1558 1559 1558 1558 1559 1559 1560 1560 1560 1561 1561 1561 1561 1561 1561 1562 1562 1562 1563 1563 1564 1564 1565 1566 1567 1566 1567 1569 1570 1572 1574 1575 1577
1545 1547 1549 1549 1551 1551 1552 1554 1555 1555 1556 1557 1556 1556 1557 1557 1557 1557 1557 1557 1557 1558 1558 1558 1558 1558 1558 1558 1558 1559 1559 1560 1560 1561 1561 1561 1562 1564 1566 1568 1569 1572 1574
1545 1546 1547 1548 1549 1550 1551 1552 1553 1554 1554 1554 1555 1554 1554 1554 1554 1554 1554 1554 1554 1555 1555 1555 1554 1554 1554 1554 1554 1554 1553 1554 1554 1554 1556 1556 1557 1558 1560 1562 1564 1567 1569
1544 1546 1546 1548 1548 1549 1550 1551 1552 1553 1553 1553 1553 1552 1552 1552 1552 1551 1552 1551 1551 1552 1551 1551 1551 1550 1550 1550 1549 1549 1549 1549 1549 1549 1549 1550 1552 1552 1554 1556 1558 1561 1563
1544 1545 1546 1548 1548 1549 1550 1550 1552 1552 1552 1552 1551 1551 1550 1550 1549 1549 1550 1550 1549 1549 1549 1548 1548 1548 1548 1547 1546 1545 1545 1544 1544 1543 1544 1544 1545 1547 1547 1549 1551 1554 1557
1544 1545 1546 1547 1548 1549 1550 1550 1551 1551 1551 1551 1550 1550 1549 1548 1548 1548 1548 1547 1546 1547 1546 1546 1546 1545 1544 1543 1543 1542 1541 1540 1539 1539 1539 1539 1539 1540 1541 1542 1544 1547 1550
1544 1545 1547 1548 1548 1549 1550 1550 1551 1550 1550 1550 1549 1548 1547 1547 1546 1546 1546 1544 1544 1544 1543 1543 1541 1541 1540 1540 1539 1538 1537 1536 1535 1534 1534 1534 1534 1534 1535 1536 1538 1540 1542
1545 1546 1547 1548 1548 1549 1550 1551 1551 1551 1550 1549 1548 1546 1546 1545 1544 1543 1543 1542 1541 1541 1540 1539 1539 1538 1538 1537 1536 1535 1533 1531 1530 1529 1529 1528 1528 1529 1529 1530 1531 1533 1535
1545 1546 1547 1547 1548 1549 1549 1549 1549 1549 1548 1548 1546 1544 1543 1542 1541 1541 1539 1539 1538 1537 1536 1535 1534 1534 1534 1534 1533 1532 1529 1528 1526 1525 1524 1524 1523 1523 1524 1524 1524 1526 1528
1545 1545 1546 1546 1547 1547 1547 1548 1547 1546 1546 1546 1544 1543 1541 1539 1538 1537 1536 1535 1534 1534 1534 1532 1531 1531 1531 1530 1530 1529 1527 1524 1523 1522 1521 1520 1519 1518 1518 1519 1519 1520 1521
1544 1544 1545 1545 1545 1545 1545 1546 1546 1545 1545 1544 1542 1541 1539 1537 1535 1534 1533 1532 1531 1531 1530 1529 1529 1527 1527 1526 1526 1525 1525 1523 1522 1519 1518 1517 1516 1514 1514 1514 1514 1515 1515
1542 1543 1543 1543 1543 1543 1543 1542 1542 1542 1541 1541 1539 1537 1535 1535 1532 1531 1530 1529 1527 1527 1526 1524 1523 1523 1523 1523 1522 1521 1520 1519 1518 1517 1515 1514 1513 1512 1511 1510 1509 1510 1510
1540 1540 1541 1541 1540 1540 1540 1539 1539 1538 1537 1537 1535 1535 1533 1532 1530 1529 1527 1525 1524 1523 1522 1520 1519 1518 1518 1517 1517 1517 1516 1516 1514 1513 1511 1510 1509 1508 1507 1506 1505 1505 1504